{"data":{"norad_id":43194,"intl_designator":"2018-015C","name":"ZHANGHENG 1-01 (CSES-1)","alt_names":[],"object_type":"PAYLOAD","status":"ACTIVE","operator":null,"country":"PRC","launch_date":"2018-02-02","launch_site_code":"JSC","launch_vehicle":null,"mission":null,"orbit_class":"UNKNOWN","rcs_meters":null,"size_class":null,"mass_kg":null,"dimensions":null,"purposes":["science"],"wikipedia_slug":null,"has_3d_model":false,"image_url":null,"decayed_at":null,"tle_current":{"epoch":"2026-09-20T05:07:45.713856Z","epoch_age_seconds":39918,"freshness":"FRESH","line1":"1 43194U 18015C   26263.21372354  .00004581  00000+0  21154-3 0  9995","line2":"2 43194  97.6964  70.8156 0013222 309.8221  50.1849 15.20665247479089","mean_motion":15.20665247,"eccentricity":0.0013222,"inclination_deg":97.6964,"raan_deg":70.8156,"arg_perigee_deg":309.8221,"mean_anomaly_deg":50.1849,"bstar":0.00021154,"rev_number":47908,"period_min":94.695397480863,"perigee_km":494.7334330185,"apogee_km":512.93211388741,"semimajor_km":6881.969773453,"source":"CELESTRAK","updated_at":"2026-09-20T09:00:47.151054Z"}}}